CFE7LJ EGLC-EDDB

Flight info

Callsign CFE7LJ
Flight time 1h 22m
Altitude 37000
Route ODUKU M84 CLN P44 RATLO M197 REDFA L620 TACHA DCT OSNAD DCT BATEL T207 OGBER
Aircraft E190/M-SDE3GILORVW/S

Departure

Time 2026-05-04 19:11
Airport London City Airport (EGLC)

Arrival

Time 2026-05-04 20:34
Airport Berlin Brandenburg Airport (EDDB)
Time Latitude Longitude Altitude Speed Heading
2026-05-04 18:28 51.50410 0.05132 24 ft 0 kts 329°
2026-05-04 19:07 51.50422 0.05121 28 ft 4 kts 329°
2026-05-04 19:08 51.50448 0.05083 24 ft 7 kts 304°
2026-05-04 19:08 51.50461 0.04996 24 ft 10 kts 277°
2026-05-04 19:08 51.50466 0.04871 24 ft 13 kts 273°
2026-05-04 19:08 51.50470 0.04718 24 ft 15 kts 272°
2026-05-04 19:09 51.50474 0.04571 24 ft 11 kts 272°
2026-05-04 19:09 51.50488 0.04467 24 ft 4 kts 303°
2026-05-04 19:09 51.50488 0.04466 24 ft 0 kts 306°
2026-05-04 19:10 51.50494 0.04458 26 ft 3 kts 317°
2026-05-04 19:10 51.50534 0.04447 24 ft 8 kts 14°
2026-05-04 19:10 51.50554 0.04554 24 ft 23 kts 88°
2026-05-04 19:11 51.50531 0.05239 24 ft 100 kts 93°
2026-05-04 19:11 51.50478 0.06701 148 ft 152 kts 96°
2026-05-04 19:11 51.50334 0.08470 774 ft 167 kts 98°
2026-05-04 19:11 51.50310 0.10401 1297 ft 186 kts 77°
2026-05-04 19:12 51.51020 0.12126 2093 ft 184 kts 37°
2026-05-04 19:12 51.53247 0.14401 3185 ft 200 kts 36°
2026-05-04 19:12 51.54454 0.15704 3206 ft 212 kts 34°
2026-05-04 19:13 51.55623 0.17049 3224 ft 200 kts 44°
2026-05-04 19:13 51.56441 0.18705 3195 ft 188 kts 63°
2026-05-04 19:13 51.57021 0.20658 3437 ft 202 kts 66°
2026-05-04 19:13 51.57594 0.22824 3351 ft 220 kts 68°
2026-05-04 19:14 51.58147 0.25170 3289 ft 224 kts 70°
2026-05-04 19:14 51.58682 0.27503 3310 ft 213 kts 69°
2026-05-04 19:14 51.59223 0.29758 3615 ft 229 kts 68°
2026-05-04 19:14 51.59873 0.32138 3926 ft 252 kts 64°
2026-05-04 19:15 51.60739 0.34663 4244 ft 260 kts 53°
2026-05-04 19:15 51.61930 0.36903 4738 ft 265 kts 48°
2026-05-04 19:15 51.63161 0.39154 5191 ft 271 kts 49°
2026-05-04 19:15 51.64393 0.41424 5643 ft 273 kts 49°
2026-05-04 19:16 51.65657 0.43743 6104 ft 277 kts 49°
2026-05-04 19:16 51.66935 0.46085 6551 ft 280 kts 49°
2026-05-04 19:16 51.68227 0.48442 6999 ft 282 kts 49°
2026-05-04 19:16 51.69532 0.50818 7444 ft 284 kts 49°
2026-05-04 19:17 51.70841 0.53202 7935 ft 285 kts 49°
2026-05-04 19:17 51.72162 0.55603 8449 ft 287 kts 49°
2026-05-04 19:17 51.73048 0.57208 8792 ft 289 kts 49°
2026-05-04 19:17 51.74391 0.59635 9308 ft 291 kts 49°
2026-05-04 19:18 51.76195 0.62884 10002 ft 294 kts 49°
2026-05-04 19:18 51.77079 0.64610 10328 ft 301 kts 58°
2026-05-04 19:18 51.77830 0.67799 10831 ft 316 kts 77°
2026-05-04 19:18 51.78385 0.71339 11336 ft 330 kts 77°
2026-05-04 19:19 51.79018 0.74996 11838 ft 342 kts 75°
2026-05-04 19:19 51.79710 0.78718 12354 ft 349 kts 74°
2026-05-04 19:19 51.80437 0.82502 12864 ft 353 kts 74°
2026-05-04 19:19 51.81167 0.86251 13401 ft 356 kts 74°
2026-05-04 19:20 51.81918 0.90093 13925 ft 359 kts 74°
2026-05-04 19:20 51.82677 0.93977 14399 ft 363 kts 74°
2026-05-04 19:20 51.83438 0.97884 14877 ft 367 kts 74°
2026-05-04 19:20 51.84206 1.01839 15372 ft 371 kts 74°
2026-05-04 19:21 51.84982 1.05841 15886 ft 373 kts 75°
2026-05-04 19:21 51.85755 1.09825 16383 ft 376 kts 75°
2026-05-04 19:21 51.86539 1.13891 16891 ft 380 kts 75°
2026-05-04 19:21 51.87326 1.17993 17420 ft 383 kts 75°
2026-05-04 19:22 51.88123 1.22142 17967 ft 387 kts 75°
2026-05-04 19:22 51.88922 1.26311 18488 ft 389 kts 75°
2026-05-04 19:22 51.89723 1.30519 18960 ft 392 kts 75°
2026-05-04 19:22 51.90531 1.34768 19436 ft 396 kts 76°
2026-05-04 19:23 51.91330 1.38987 19929 ft 399 kts 76°
2026-05-04 19:23 51.92145 1.43287 20602 ft 400 kts 76°
2026-05-04 19:23 51.92969 1.47627 21216 ft 404 kts 76°
2026-05-04 19:23 51.93795 1.52016 21751 ft 409 kts 76°
2026-05-04 19:24 51.94624 1.56459 22278 ft 414 kts 76°
2026-05-04 19:24 51.95457 1.60951 22811 ft 419 kts 76°
2026-05-04 19:24 51.96300 1.65502 23379 ft 423 kts 76°
2026-05-04 19:24 51.97147 1.70086 23912 ft 426 kts 76°
2026-05-04 19:25 51.98000 1.74715 24450 ft 429 kts 76°
2026-05-04 19:25 51.98855 1.79370 24987 ft 431 kts 76°
2026-05-04 19:25 51.99714 1.84056 25498 ft 435 kts 76°
2026-05-04 19:25 52.00575 1.88786 25992 ft 438 kts 76°
2026-05-04 19:26 52.01426 1.93474 26454 ft 441 kts 76°
2026-05-04 19:26 52.02294 1.98280 26904 ft 443 kts 77°
2026-05-04 19:26 52.03164 2.03116 27315 ft 446 kts 77°
2026-05-04 19:26 52.04035 2.07980 27731 ft 449 kts 77°
2026-05-04 19:27 52.04907 2.12864 28122 ft 452 kts 77°
2026-05-04 19:27 52.05782 2.17785 28489 ft 455 kts 77°
2026-05-04 19:27 52.06660 2.22742 28866 ft 457 kts 77°
2026-05-04 19:27 52.07538 2.27715 29314 ft 457 kts 77°
2026-05-04 19:28 52.08413 2.32667 29885 ft 455 kts 77°
2026-05-04 19:28 52.09286 2.37609 30367 ft 454 kts 77°
2026-05-04 19:28 52.10143 2.42478 30733 ft 454 kts 78°
2026-05-04 19:28 52.11010 2.47421 31132 ft 453 kts 78°
2026-05-04 19:29 52.11887 2.52339 31496 ft 452 kts 76°
2026-05-04 19:29 52.12836 2.57225 31840 ft 452 kts 76°
2026-05-04 19:29 52.13795 2.62096 32166 ft 452 kts 76°
2026-05-04 19:29 52.14743 2.66969 32489 ft 452 kts 76°
2026-05-04 19:30 52.15682 2.71858 32828 ft 451 kts 76°
2026-05-04 19:30 52.16606 2.76693 33117 ft 451 kts 76°
2026-05-04 19:30 52.17536 2.81587 33438 ft 451 kts 76°
2026-05-04 19:30 52.18463 2.86471 33748 ft 450 kts 76°
2026-05-04 19:31 52.19384 2.91343 34054 ft 450 kts 76°
2026-05-04 19:31 52.20305 2.96226 34314 ft 450 kts 76°
2026-05-04 19:31 52.21227 3.01127 34568 ft 450 kts 76°
2026-05-04 19:31 52.22143 3.06009 34831 ft 451 kts 76°
2026-05-04 19:32 52.23057 3.10895 35084 ft 451 kts 76°
2026-05-04 19:32 52.23971 3.15789 35332 ft 451 kts 76°
2026-05-04 19:32 52.24882 3.20682 35566 ft 451 kts 76°
2026-05-04 19:32 52.25513 3.25670 35812 ft 447 kts 89°
2026-05-04 19:33 52.25662 3.30680 35995 ft 448 kts 93°
2026-05-04 19:33 52.25686 3.35766 36229 ft 447 kts 94°
2026-05-04 19:33 52.25700 3.40844 36481 ft 447 kts 94°
2026-05-04 19:33 52.25726 3.45912 36718 ft 447 kts 93°
2026-05-04 19:34 52.25762 3.50980 36980 ft 443 kts 93°
2026-05-04 19:34 52.25799 3.55982 37132 ft 443 kts 93°
2026-05-04 19:34 52.25836 3.61044 37120 ft 449 kts 93°
2026-05-04 19:35 52.25901 3.71386 37002 ft 462 kts 93°
2026-05-04 19:35 52.25956 3.81921 37021 ft 471 kts 93°
2026-05-04 19:36 52.26003 3.92699 37014 ft 475 kts 94°
2026-05-04 19:36 52.26046 4.03517 36999 ft 475 kts 94°
2026-05-04 19:37 52.26080 4.14246 37017 ft 475 kts 94°
2026-05-04 19:37 52.26105 4.25041 37003 ft 475 kts 94°
2026-05-04 19:38 52.26119 4.35843 37002 ft 475 kts 94°
2026-05-04 19:38 52.26123 4.46585 37000 ft 475 kts 94°
2026-05-04 19:39 52.26118 4.57377 36998 ft 475 kts 94°
2026-05-04 19:39 52.26102 4.68197 36996 ft 476 kts 94°
2026-05-04 19:40 52.26077 4.79018 36989 ft 476 kts 94°
2026-05-04 19:40 52.26041 4.89760 36995 ft 476 kts 95°
2026-05-04 19:41 52.25996 5.00574 36997 ft 476 kts 95°
2026-05-04 19:41 52.25941 5.11408 36994 ft 476 kts 95°
2026-05-04 19:42 52.25875 5.22217 36986 ft 477 kts 95°
2026-05-04 19:42 52.26434 5.32979 36987 ft 482 kts 74°
2026-05-04 19:42 52.27978 5.37822 37095 ft 481 kts 56°
2026-05-04 19:43 52.30109 5.41968 37047 ft 484 kts 49°
2026-05-04 19:43 52.34480 5.50415 37014 ft 487 kts 57°
2026-05-04 19:44 52.37680 5.60128 37006 ft 484 kts 72°
2026-05-04 19:44 52.39739 5.70632 36997 ft 483 kts 79°
2026-05-04 19:45 52.40835 5.81391 36973 ft 480 kts 89°
2026-05-04 19:45 52.41385 5.92291 36966 ft 480 kts 90°
2026-05-04 19:46 52.41898 6.03211 36969 ft 480 kts 90°
2026-05-04 19:46 52.42412 6.14132 36976 ft 480 kts 90°
2026-05-04 19:47 52.42907 6.24976 36981 ft 480 kts 90°
2026-05-04 19:47 52.43406 6.35907 36975 ft 480 kts 90°
2026-05-04 19:48 52.43892 6.46845 36971 ft 481 kts 90°
2026-05-04 19:48 52.44366 6.57795 36970 ft 481 kts 90°
2026-05-04 19:49 52.44821 6.68692 36973 ft 481 kts 90°
2026-05-04 19:49 52.45271 6.79669 36972 ft 482 kts 90°
2026-05-04 19:50 52.45711 6.90647 36966 ft 482 kts 91°
2026-05-04 19:50 52.46143 7.01568 36968 ft 483 kts 91°
2026-05-04 19:51 52.46561 7.12587 36976 ft 483 kts 91°
2026-05-04 19:51 52.46959 7.23552 36987 ft 483 kts 91°
2026-05-04 19:52 52.47356 7.34582 36977 ft 484 kts 91°
2026-05-04 19:52 52.47759 7.45623 36976 ft 484 kts 91°
2026-05-04 19:53 52.48135 7.56620 36985 ft 485 kts 91°
2026-05-04 19:53 52.48500 7.67670 36963 ft 485 kts 91°
2026-05-04 19:54 52.48864 7.78748 36971 ft 486 kts 91°
2026-05-04 19:54 52.49218 7.89844 36969 ft 486 kts 91°
2026-05-04 19:55 52.49566 8.00873 36972 ft 486 kts 91°
2026-05-04 19:55 52.49894 8.12015 36978 ft 487 kts 91°
2026-05-04 19:56 52.50221 8.23070 36989 ft 487 kts 91°
2026-05-04 19:56 52.50532 8.34183 36968 ft 487 kts 91°
2026-05-04 19:57 52.50843 8.45338 36978 ft 487 kts 91°
2026-05-04 19:57 52.51124 8.56411 36973 ft 487 kts 92°
2026-05-04 19:58 52.51389 8.67532 36976 ft 487 kts 92°
2026-05-04 19:58 52.51661 8.78648 36983 ft 487 kts 92°
2026-05-04 19:59 52.51942 8.89797 36975 ft 487 kts 91°
2026-05-04 19:59 52.52202 9.00905 36967 ft 487 kts 92°
2026-05-04 20:00 52.52435 9.11967 36983 ft 488 kts 92°
2026-05-04 20:00 52.52668 9.23129 36955 ft 489 kts 92°
2026-05-04 20:01 52.52876 9.34236 36962 ft 488 kts 92°
2026-05-04 20:01 52.53088 9.45388 36968 ft 488 kts 92°
2026-05-04 20:02 52.53286 9.56564 36996 ft 489 kts 92°
2026-05-04 20:02 52.53466 9.67728 36988 ft 489 kts 92°
2026-05-04 20:03 52.53613 9.78913 37002 ft 489 kts 92°
2026-05-04 20:03 52.53807 9.90016 36967 ft 489 kts 92°
2026-05-04 20:04 52.53965 10.01200 36962 ft 489 kts 92°
2026-05-04 20:04 52.54046 10.06785 36604 ft 485 kts 92°
2026-05-04 20:04 52.54098 10.10426 36422 ft 475 kts 92°
2026-05-04 20:04 52.54158 10.15788 35849 ft 469 kts 93°
2026-05-04 20:05 52.54233 10.22862 35056 ft 464 kts 93°
2026-05-04 20:05 52.54273 10.26391 34592 ft 466 kts 93°
2026-05-04 20:05 52.54323 10.31715 33992 ft 468 kts 94°
2026-05-04 20:05 52.54341 10.37094 33339 ft 471 kts 94°
2026-05-04 20:06 52.54394 10.42496 32739 ft 474 kts 93°
2026-05-04 20:06 52.54455 10.47919 32128 ft 474 kts 93°
2026-05-04 20:06 52.54514 10.53355 31459 ft 477 kts 93°
2026-05-04 20:06 52.54570 10.58801 30862 ft 477 kts 93°
2026-05-04 20:07 52.54612 10.64204 30209 ft 478 kts 93°
2026-05-04 20:07 52.54643 10.69670 29552 ft 477 kts 93°
2026-05-04 20:07 52.54682 10.75121 28939 ft 477 kts 94°
2026-05-04 20:07 52.54717 10.80589 28317 ft 475 kts 93°
2026-05-04 20:08 52.54762 10.85984 27659 ft 470 kts 93°
2026-05-04 20:08 52.54802 10.91273 27062 ft 464 kts 93°
2026-05-04 20:08 52.54837 10.96548 26444 ft 459 kts 93°
2026-05-04 20:08 52.54865 11.01760 25836 ft 453 kts 94°
2026-05-04 20:09 52.54892 11.06910 25243 ft 449 kts 94°
2026-05-04 20:09 52.54903 11.12018 24742 ft 443 kts 95°
2026-05-04 20:09 52.54839 11.17062 24213 ft 440 kts 95°
2026-05-04 20:09 52.54823 11.22082 23804 ft 437 kts 94°
2026-05-04 20:10 52.54883 11.27071 23308 ft 435 kts 92°
2026-05-04 20:10 52.54979 11.32018 22893 ft 431 kts 92°
2026-05-04 20:10 52.55086 11.36921 22440 ft 428 kts 92°
2026-05-04 20:10 52.55196 11.41792 21980 ft 426 kts 92°
2026-05-04 20:11 52.55303 11.46631 21553 ft 422 kts 92°
2026-05-04 20:11 52.55408 11.51382 21118 ft 419 kts 92°
2026-05-04 20:11 52.55513 11.56140 20688 ft 415 kts 92°
2026-05-04 20:11 52.55614 11.60861 20257 ft 412 kts 92°
2026-05-04 20:12 52.55712 11.65548 19829 ft 409 kts 92°
2026-05-04 20:12 52.55807 11.70204 19404 ft 405 kts 92°
2026-05-04 20:12 52.55899 11.74821 18989 ft 402 kts 92°
2026-05-04 20:12 52.55988 11.79344 18578 ft 399 kts 92°
2026-05-04 20:13 52.56076 11.83896 18145 ft 396 kts 92°
2026-05-04 20:13 52.56163 11.88411 17749 ft 392 kts 92°
2026-05-04 20:13 52.56246 11.92879 17328 ft 390 kts 92°
2026-05-04 20:13 52.56327 11.97333 16932 ft 388 kts 92°
2026-05-04 20:14 52.56403 12.01687 16524 ft 385 kts 92°
2026-05-04 20:14 52.56479 12.06077 16149 ft 382 kts 91°
2026-05-04 20:14 52.56549 12.10414 15916 ft 379 kts 92°
2026-05-04 20:14 52.56557 12.14747 15634 ft 378 kts 94°
2026-05-04 20:15 52.56535 12.19067 15508 ft 377 kts 94°
2026-05-04 20:15 52.56520 12.23389 15161 ft 379 kts 93°
2026-05-04 20:15 52.56709 12.27696 14715 ft 375 kts 83°
2026-05-04 20:15 52.57203 12.31880 14252 ft 369 kts 81°
2026-05-04 20:16 52.57697 12.35967 13734 ft 360 kts 82°
2026-05-04 20:16 52.58138 12.39954 13260 ft 349 kts 82°
2026-05-04 20:16 52.58545 12.43826 12821 ft 340 kts 83°
2026-05-04 20:16 52.58930 12.47629 12382 ft 334 kts 83°
2026-05-04 20:17 52.59300 12.51385 11929 ft 330 kts 83°
2026-05-04 20:17 52.59655 12.55044 11530 ft 324 kts 83°
2026-05-04 20:17 52.60008 12.58687 11091 ft 320 kts 83°
2026-05-04 20:17 52.60352 12.62267 10672 ft 314 kts 83°
2026-05-04 20:18 52.60688 12.65781 10328 ft 307 kts 84°
2026-05-04 20:18 52.61003 12.69237 9985 ft 301 kts 88°
2026-05-04 20:18 52.60723 12.72494 9687 ft 288 kts 118°
2026-05-04 20:18 52.59496 12.74959 9405 ft 275 kts 147°
2026-05-04 20:19 52.57934 12.76758 9174 ft 274 kts 151°
2026-05-04 20:19 52.56346 12.78517 8917 ft 276 kts 150°
2026-05-04 20:19 52.54776 12.80340 8673 ft 276 kts 149°
2026-05-04 20:19 52.53226 12.82205 8424 ft 276 kts 148°
2026-05-04 20:20 52.51687 12.84082 8157 ft 275 kts 148°
2026-05-04 20:20 52.50161 12.85951 7771 ft 272 kts 148°
2026-05-04 20:20 52.48662 12.87780 7406 ft 263 kts 148°
2026-05-04 20:20 52.47220 12.89540 7040 ft 255 kts 148°
2026-05-04 20:21 52.45799 12.91270 6605 ft 252 kts 148°
2026-05-04 20:21 52.44411 12.92952 6198 ft 248 kts 147°
2026-05-04 20:21 52.41665 12.96251 5426 ft 241 kts 147°
2026-05-04 20:22 52.40322 12.97864 5037 ft 238 kts 147°
2026-05-04 20:22 52.38997 12.99463 4690 ft 234 kts 147°
2026-05-04 20:22 52.37610 13.00738 4369 ft 225 kts 168°
2026-05-04 20:22 52.36111 13.01190 4199 ft 214 kts 175°
2026-05-04 20:23 52.34658 13.01108 4067 ft 207 kts 199°
2026-05-04 20:23 52.33448 12.99916 4087 ft 205 kts 230°
2026-05-04 20:23 52.32789 12.97886 4136 ft 208 kts 259°
2026-05-04 20:23 52.32557 12.95517 4101 ft 211 kts 265°
2026-05-04 20:24 52.32393 12.93158 4176 ft 208 kts 264°
2026-05-04 20:24 52.32085 12.90805 3988 ft 212 kts 251°
2026-05-04 20:24 52.31475 12.88656 3995 ft 208 kts 241°
2026-05-04 20:24 52.30591 12.86772 3968 ft 210 kts 227°
2026-05-04 20:25 52.29442 12.85314 3969 ft 209 kts 212°
2026-05-04 20:25 52.28104 12.84354 3954 ft 211 kts 199°
2026-05-04 20:25 52.26680 12.83940 3928 ft 210 kts 185°
2026-05-04 20:25 52.25222 12.84093 3948 ft 210 kts 172°
2026-05-04 20:26 52.23823 12.84803 3966 ft 213 kts 158°
2026-05-04 20:26 52.22585 12.86118 3982 ft 214 kts 139°
2026-05-04 20:26 52.21815 12.88164 3978 ft 213 kts 107°
2026-05-04 20:26 52.21784 12.90582 3964 ft 216 kts 79°
2026-05-04 20:27 52.22273 12.92868 4027 ft 218 kts 71°
2026-05-04 20:27 52.22847 12.95163 3963 ft 218 kts 69°
2026-05-04 20:27 52.23464 12.97404 3987 ft 215 kts 68°
2026-05-04 20:27 52.24047 12.99666 3965 ft 215 kts 70°
2026-05-04 20:28 52.24605 13.01936 3979 ft 216 kts 70°
2026-05-04 20:28 52.24948 13.04281 3973 ft 215 kts 92°
2026-05-04 20:28 52.24984 13.06755 3961 ft 218 kts 81°
2026-05-04 20:28 52.25470 13.09034 4006 ft 217 kts 67°
2026-05-04 20:29 52.26087 13.11279 4010 ft 216 kts 71°
2026-05-04 20:29 52.26596 13.13600 3970 ft 216 kts 73°
2026-05-04 20:29 52.27132 13.15889 3983 ft 217 kts 70°
2026-05-04 20:29 52.27707 13.18174 3885 ft 220 kts 70°
2026-05-04 20:30 52.28262 13.20522 3560 ft 221 kts 71°
2026-05-04 20:30 52.28813 13.22838 3261 ft 216 kts 70°
2026-05-04 20:30 52.29358 13.25093 2968 ft 211 kts 70°
2026-05-04 20:30 52.29888 13.27308 2687 ft 208 kts 70°
2026-05-04 20:31 52.30412 13.29502 2423 ft 207 kts 70°
2026-05-04 20:31 52.30935 13.31690 2150 ft 206 kts 70°
2026-05-04 20:31 52.31451 13.33839 1851 ft 202 kts 69°
2026-05-04 20:31 52.31956 13.35961 1605 ft 200 kts 69°
2026-05-04 20:32 52.32468 13.38102 1324 ft 203 kts 69°
2026-05-04 20:32 52.32982 13.40229 1079 ft 199 kts 69°
2026-05-04 20:32 52.33450 13.42236 780 ft 179 kts 69°
2026-05-04 20:32 52.33875 13.44011 560 ft 159 kts 69°
2026-05-04 20:33 52.34248 13.45575 389 ft 136 kts 70°
2026-05-04 20:33 52.34565 13.46953 232 ft 125 kts 69°
2026-05-04 20:33 52.34872 13.48194 158 ft 104 kts 69°
2026-05-04 20:33 52.35082 13.49111 157 ft 68 kts 69°
2026-05-04 20:34 52.35230 13.49708 156 ft 50 kts 57°
2026-05-04 20:34 52.35400 13.50030 151 ft 19 kts 41°
2026-05-04 20:34 52.35418 13.50057 151 ft 3 kts 41°
2026-05-04 20:34 52.35462 13.50105 149 ft 11 kts 34°
2026-05-04 20:35 52.35548 13.50204 147 ft 17 kts 16°
2026-05-04 20:35 52.35679 13.50148 147 ft 21 kts 337°
2026-05-04 20:35 52.35824 13.50048 148 ft 23 kts 340°
2026-05-04 20:35 52.35884 13.50092 148 ft 12 kts 72°
2026-05-04 20:36 52.35899 13.50158 148 ft 0 kts 69°